Weather History for KNMM - April, 2014

Change the Weather History Date:

Wednesday, April 16, 2014

  Actual Average Record
Temperature  
Mean Temperature 50 °F -  
Max Temperature 66 °F 73 °F 86 °F (2012)
Min Temperature 35 °F 51 °F 35 °F (2008)
Degree Days  
Heating Degree Days 16    
Moisture  
Dew Point 32 °F    
Average Humidity 56    
Maximum Humidity 79    
Minimum Humidity 28    
Precipitation  
Precipitation 0.00 in - - ()
Sea Level Pressure  
Sea Level Pressure 30.24 in    
Wind  
Wind Speed 5 mph (ENE)    
Max Wind Speed 12 mph    
Max Gust Speed -    
Visibility 10 miles    
Events      
Averages and records for this station are not official NWS values.
T = Trace of Precipitation, MM = Missing Value Source: NWS Daily Summary

Daily Weather History Graph

Daily Weather History Graph

Search for Another Location

Airport or City:

Trip Planner

Search our weather history database for the weather conditions in past years. The results will help you decide how hot, cold, wet, or windy it might be!

Date:

Astronomy

Apr. 16, 2014 Rise Set
Actual Time 6:23 AM CDT 7:24 PM CDT
Civil Twilight 5:58 AM CDT 7:50 PM CDT
Nautical Twilight 5:28 AM CDT 8:20 PM CDT
Astronomical Twilight 4:57 AM CDT 8:51 PM CDT
Moon 9:03 PM CDT (4/16) 7:14 AM CDT (4/16)
Length of Visible Light 13h 51m
Length of Day
13h 01m
Full, 98% of the Moon is Illuminated
Apr 16
Full
Apr 22
Last Quarter
Apr 29
New
May 6
First Quarter
May 14
Full

Hourly Weather History & Observations

Time (CDT) Temp. Windchill Dew Point Humidity Pressure Visibility Wind Dir Wind Speed Gust Speed Precip Events Conditions
12:56 AM 39.9 °F 35.8 °F 28.9 °F 65% 30.25 in 10.0 mi North 5.8 mph - N/A   Clear
1:56 AM 37.9 °F 34.4 °F 30.0 °F 73% 30.25 in 10.0 mi NNW 4.6 mph - N/A   Clear
2:56 AM 37.0 °F 34.5 °F 30.0 °F 76% 30.25 in 10.0 mi Variable 3.5 mph - N/A   Clear
3:56 AM 37.0 °F 33.3 °F 30.0 °F 76% 30.25 in 10.0 mi NE 4.6 mph - N/A   Clear
4:56 AM 36.0 °F 32.1 °F 28.9 °F 76% 30.26 in 10.0 mi NNE 4.6 mph - N/A   Clear
5:56 AM 35.1 °F 32.2 °F 28.9 °F 78% 30.29 in 10.0 mi North 3.5 mph - N/A   Clear
6:56 AM 35.1 °F 32.2 °F 28.9 °F 78% 30.30 in 10.0 mi NNE 3.5 mph - N/A   Clear
7:00 AM 35.1 °F 32.2 °F 28.9 °F 78% 30.26 in 10.0 mi NNE 3.5 mph - N/A   Clear
7:56 AM 39.0 °F 33.4 °F 28.9 °F 67% 30.30 in 10.0 mi ENE 8.1 mph - N/A   Clear
8:56 AM 44.1 °F 38.1 °F 28.9 °F 55% 30.31 in 10.0 mi East 11.5 mph - N/A   Clear
9:56 AM 48.0 °F - 27.0 °F 44% 30.31 in 10.0 mi ENE 6.9 mph - N/A   Clear
10:56 AM 51.1 °F - 27.0 °F 39% 30.30 in 10.0 mi East 5.8 mph - N/A   Clear
11:56 AM 54.0 °F - 28.0 °F 37% 30.28 in 10.0 mi ENE 8.1 mph - N/A   Clear
12:56 PM 57.9 °F - 30.0 °F 35% 30.25 in 10.0 mi Variable 3.5 mph - N/A   Clear
1:56 PM 61.0 °F - 30.9 °F 32% 30.23 in 10.0 mi East 6.9 mph - N/A   Clear
2:56 PM 63.0 °F - 28.9 °F 28% 30.20 in 10.0 mi ENE 5.8 mph - N/A   Clear
3:56 PM 64.0 °F - 30.0 °F 28% 30.19 in 10.0 mi South 8.1 mph - N/A   Clear
4:56 PM 64.9 °F - 30.9 °F 28% 30.17 in 10.0 mi Calm Calm - N/A   Clear
5:56 PM 64.0 °F - 34.0 °F 33% 30.16 in 10.0 mi East 8.1 mph - N/A   Clear
6:56 PM 59.0 °F - 37.0 °F 44% 30.17 in 10.0 mi East 5.8 mph - N/A   Clear
7:56 PM 55.0 °F - 37.9 °F 53% 30.19 in 10.0 mi East 3.5 mph - N/A   Clear
8:56 PM 51.1 °F - 39.9 °F 66% 30.20 in 10.0 mi East 5.8 mph - N/A   Clear
9:56 PM 51.1 °F - 39.9 °F 66% 30.22 in 10.0 mi East 4.6 mph - N/A   Clear
10:56 PM 50.0 °F - 39.9 °F 68% 30.22 in 10.0 mi Calm Calm - N/A   Clear
11:56 PM 46.0 °F 44.8 °F 39.9 °F 79% 30.22 in 10.0 mi ESE 3.5 mph - N/A   Clear